Location: Peebles
(55.6412°N, 3.1714°W)
Time: 08:39:32
(UTC+00:00)

COSMOS 2251 DEB - Pass Details

Date: 04 December 2022
Orbit: 738 x 761 km, 74.0° (Epoch: 29 January)

Event Time Altitude Azimuth Distance (km) Brightness Sun altitude
Exits shadow 06:04:58 11° 342° (NNW) 2,166 ? -17.9°
Maximum altitude 06:05:08 11° 344° (NNW) 2,165 ? -17.9°
Drops below altitude 10° 06:06:46 10° 3° (N) 2,261 ? -17.7°
Sets 06:11:02 0° 37° (NE) 3,190 ? -17.1°
